Regional Weather Roundup
Issued by NWS

Home | Current Version | Previous Version | Graphics & Text | Print | Product List | Glossary On
Versions: 1 2 3 4 5 6 7 8 9 10 11 12 13 14 15 16 17 18 19 20 21 22 23 24 25 26 27 28 29 30 31 32 33 34 35 36 37 38 39 40 41 42 43 44 45 46 47 48 49 50
000
ASUS43 KLOT 300512
RWRIL

ILLINOIS REGIONAL WEATHER ROUNDUP
NATIONAL WEATHER SERVICE CHICAGO/ROMEOVILLE IL
1200 AM CDT SAT MAY 30 2015

NOTE: "FAIR" INDICATES FEW OR NO CLOUDS BELOW 12,000 FEET WITH NO
SIGNIFICANT WEATHER AND/OR OBSTRUCTIONS TO VISIBILITY.

* THESE STATIONS ARE NOT UNDER NWS QUALITY CONTROL. THEY ALSO MAY NOT
  REPORT WEATHER SUCH AS PRECIPITATION OR FOG.

ILZ001-002-007-009-015-016-024-300600-
NORTHWEST ILLINOIS

CITY           SKY/WX    TMP DP  RH WIND       PRES   REMARKS
MOLINE         CLOUDY    68  64  87 W6        29.96R
STERLING*      CLOUDY    68  64  88 W3        29.96R
SAVANNA*       CLOUDY    72  64  75 SW8       29.94S
$$

ILZ003-004-008-010-011-017-018-300600-
NORTH CENTRAL ILLINOIS

CITY           SKY/WX    TMP DP  RH WIND       PRES   REMARKS
ROCKFORD       CLOUDY    71  63  75 SW6       29.94S
FREEPORT*      CLOUDY    69  64  85 SW8       29.96R
ROCHELLE*      MOCLDY    68  64  88 SW6       29.95S
DE KALB*       MOCLDY    68  61  78 SW6       29.96S
PERU*          CLOUDY    72  66  83 SW8       29.97S
$$

ILZ005-006-012>014-019>023-300600-
NORTHEAST ILLINOIS

CITY           SKY/WX    TMP DP  RH WIND       PRES   REMARKS
CHICAGO-OHARE  CLOUDY    73  66  78 SW10      29.94R
CHICAGO-MIDWAY MOCLDY    74  66  76 SW10      29.95R
AURORA         MOCLDY    72  64  76 SW10      29.95S
LANSING*       CLOUDY    69  62  77 SW7       29.96F
JOLIET*        MOCLDY    71  65  83 S3        29.96S
WAUKEGAN       CLOUDY    70  62  76 SW6       29.92R
DUPAGE AIRPORT MOCLDY    72  65  78 SW10      29.95R
KANKAKEE*      MOCLDY    69  65  89 S9        29.98S
WHEELING       MOCLDY    72  65  78 SW6       29.94S
MORRIS*        CLOUDY    70  64  83 SW10      29.95R
ROMEOVILLE*    MOCLDY    69  63  81 SW9       29.96S
NORTHERLY ISL    N/A     73  63  70 W6          N/A
$$

LMZ740>746-300600-
SOUTHERN LAKE MICHIGAN

STATION/POSITION SKY/WX   TEMP    WIND        PRES    VSBY  WAVE
                          AIR SEA DIR/SP/G                  HT/PER
                          (F)     (DEG/KT/KT) (MB)    (MI)  (FT/S)
SOUTHERN BUOY              48 38  200/ 10/ 10 1013.5R         0
HARRISON CRIB              73     210/ 17/ 18   N/A
BURNHAM HARBOR             73     210/  3/ 10   N/A
CALUMET HARBOR             72     200/  9/ 12   N/A
BURNS HARBOR               71     190/ 11/ 15 1014.6F
MICHIGAN CITY              73     170/ 11/ 13   N/A
MICHIGAN CITY 6N           64 56  210/  8/ 10   N/A           1
ST. JOSEPH                 64 58  230/ 10/ 12   N/A           1/ 3
$$

ILZ025>027-034>036-040-047-049-050-058-095>099-300600-
WEST-CENTRAL ILLINOIS

CITY           SKY/WX    TMP DP  RH WIND       PRES   REMARKS
QUINCY         LGT RAIN  68  67  96 W5        30.00R FOG
GALESBURG*     CLOUDY    69  65  88 SW7       29.98S
MACOMB*        LGT RAIN  69  66  90 SW6       30.01S
JACKSONVILLE*  LGT RAIN  72  68  87 SW6       29.99R
PITTSFIELD*    RAIN      68  65  90 S5        30.03R
$$

ILZ028>032-037-038-041>044-048-051>054-059>061-300600-
CENTRAL ILLINOIS

CITY           SKY/WX    TMP DP  RH WIND       PRES   REMARKS
PONTIAC        MOCLDY    70  67  90 SW7       29.98S
BLOOMINGTON    CLOUDY    69  68  97 SW10      30.00S
DECATUR        CLOUDY    70  66  87 SW5       29.99F
PEORIA         CLOUDY    72  68  87 SW5       29.98S
LACON*         CLOUDY    70  66  87 SW3       29.97S
LINCOLN*       CLOUDY    71  68  90 S5        29.97S
SPRINGFIELD    LGT RAIN  72  69  90 S9        29.99S
TAYLORVILLE    CLOUDY    68  64  88 S9        30.00S
$$

ILZ033-039-045-046-055>057-062-063-300600-
EAST-CENTRAL ILLINOIS

CITY           SKY/WX    TMP DP  RH WIND       PRES   REMARKS
CHAMPAIGN      CLOUDY    70  65  84 SW10      30.00S
DANVILLE*      CLOUDY    71  64  79 SW8       29.98S
RANTOUL*       CLOUDY    71  69  94 SW5       29.99F
MATTOON        CLOUDY    68  65  90 S7        29.99F
PARIS*         CLOUDY    72  63  75 S5        30.01F
$$

ILZ079-100>102-300600-
SOUTHWEST ILLINOIS

CITY           SKY/WX    TMP DP  RH WIND       PRES   REMARKS
ALTON          LGT RAIN  69  69 100 S3        30.00S
BELLEVILLE     CLOUDY    67  67 100 CALM      29.98F
CAHOKIA*       CLOUDY    71  66  84 CALM      29.98F
SPARTA*        CLOUDY    67  66  97 SE8       30.01S
$$

ILZ064>066-069>071-074>076-080>082-084>086-088>090-092>094-300600-
SOUTH-CENTRAL ILLINOIS

CITY           SKY/WX    TMP DP  RH WIND       PRES   REMARKS
CARBONDALE     MOCLDY    69  67  93 E7        30.01S
CAIRO*         PTCLDY    75  69  80 SE7       30.00S
EFFINGHAM*     MOCLDY    68  64  86 SE6       30.02S
MARION         CLOUDY    70  68  94 NE3       30.02F
MT. VERNON     CLOUDY    68  63  83 CALM      30.05F
CENTRALIA*     RAIN      65  63  94 SE6       30.03F
SALEM*         HVY RAIN  70  67  89 SW5       30.02F
METROPOLIS*    CLEAR     74  69  85 E3        30.01S
$$

ILZ067-068-072-073-078-083-087-091-300600-
SOUTHEAST ILLINOIS

CITY           SKY/WX    TMP DP  RH WIND       PRES   REMARKS
LAWRENCEVILLE  CLEAR     70  65  84 W6        30.02F
FLORA*         CLEAR     67  66  98 CALM      30.02S
FAIRFIELD*     CLOUDY    68  66  92 CALM      30.01F
HARRISBURG*    PTCLDY    70  66  86 CALM      30.03F
ROBINSON*      PTCLDY    70  64  83 S5        30.03S
CARMI*         PTCLDY    70  63  78 E3        30.02F
$$

ABBREVIATIONS USED IN REMARKS
   TC - TEMPERATURE IN CELSIUS
  WCI - WIND CHILL INDEX
   HX - HEAT INDEX
  VSB - VISIBILITY
$$



USA.gov is the U.S. government's official web portal to all federal, state and local government web resources and services.